Location: Bacea
(45.9500°N, 22.6667°E)
Time: 09:26:08
(UTC+00:00)

Resurs 01 Rocket - Pass Details

Date: 16 October 2021
Orbit: 635 x 643 km, 97.9° (Epoch: 07 December)

Event Time Altitude Azimuth Distance (km) Brightness Sun altitude
Exits shadow 18:26:24 11° 5° (N) 1,956 4.2 -29.2°
Drops below altitude 10° 18:26:37 10° 4° (N) 2,035 4.3 -29.2°
Sets 18:28:58 0° 355° (N) 2,950 5.3 -29.6°
